Wetbulb
54.07 53.68 53.44 53.04 52.61 52.05 54.13 62.83 53.84 62.02 63.50 54.78 53.86 48.92 48.57 44.47 48.90 50.68 49.30 49.33 47.89 46.19 46.46 45.06 44.83 43.92 46.57 49.47 48.83 45.12 47.56 43.42 38.33 41.63 47.90 48.78 46.15 44.28 44.28 36.23 35.27 37.80 36.02 35.80
54.25 53.75 53.52 52.96 52.58 52.14 57.19 56.24 55.72 63.05 61.93 49.53 50.06 49.55 48.31 49.87 48.57 48.72 48.54 47.54 48.75 49.01 46.41 43.05 45.86 46.39 49.39 49.74 47.95 45.38 46.45 42.47 35.55 39.05 44.62 46.57 44.22 45.00 45.22 44.36 39.75 35.63 32.07 35.43
54.61 54.33 53.73 53.22 52.74 52.36 57.45 56.32 48.38 56.25 57.47 55.80 51.15 48.62 47.95 46.63 50.54 49.01 49.70 48.54 49.46 47.72 46.13 47.94 44.70 45.59 48.77 49.67 48.94 46.67 47.00 42.55 39.23 34.93 38.79 43.22 40.05 42.37 43.71 42.32 35.38 36.27 37.14 39.58
54.17 54.19 53.65 53.06 52.68 52.15 58.37 55.49 51.96 52.67 51.11 51.14 51.78 50.81 49.08 47.34 46.61 49.90 50.06 47.93 47.50 46.12 41.14 43.09 43.41 46.38 47.31 49.48 47.59 48.67 46.51 39.30 41.54 42.19 42.85 42.22 40.65 40.47 41.42 40.22 40.49 35.62 38.38 40.36
53.63 53.87 53.45 52.71 52.26 51.67 59.57 53.84 53.05 53.92 51.09 50.90 49.78 46.00 47.35 46.66 47.50 47.34 46.84 45.78 47.90 47.65 45.06 44.68 42.52 45.38 46.01 44.89 48.28 47.32 47.52 38.10 38.50 36.27 41.02 41.24 38.02 40.71 41.62 41.01 41.22 41.32 42.05 41.56
52.99 54.51 53.00 52.40 51.83 53.01 58.09 57.47 56.38 56.87 47.53 49.43 48.59 48.36 47.43 47.09 48.44 49.55 49.35 48.84 47.90 43.40 47.40 50.22 50.17 50.13 49.22 48.28 46.21 44.80 43.90 39.09 34.19 32.56 37.87 36.27 32.38 37.06 40.35 41.96 43.53 42.70 37.36 42.63
52.83 51.10 51.14 52.45 51.82 52.03 60.30 58.49 57.22 43.25 47.59 50.23 47.88 48.35 48.65 48.04 48.68 47.39 49.81 50.29 46.74 50.43 54.39 53.00 51.08 49.58 48.02 47.51 46.84 48.09 40.82 36.19 34.18 32.23 32.95 27.49 39.98 45.79 44.04 42.36 43.73 44.80 43.85 44.28
52.53 50.96 52.38 52.99 52.15 52.13 59.50 59.58 57.07 51.55 36.77 49.84 48.79 49.09 48.68 49.51 50.04 48.71 48.95 50.35 52.54 54.52 50.85 42.91 35.69 40.39 37.68 39.82 45.93 46.07 47.05 38.10 34.96 31.70 32.66 36.14 38.90 42.14 41.95 39.82 39.53 44.97 43.80 45.03
51.46 51.28 52.24 52.38 51.90 52.36 57.11 60.44 60.60 55.52 38.79 46.36 50.61 49.05 49.74 47.86 48.32 48.98 49.95 53.37 54.60 52.14 47.99 38.77 33.30 33.81 36.29 36.94 39.75 45.68 43.06 40.44 39.31 36.23 30.43 27.24 38.50 43.52 46.90 45.97 34.64 45.16 44.70 43.80
50.94 50.60 50.70 51.07 51.46 51.68 55.80 60.87 62.04 56.66 48.30 52.58 52.67 49.32 49.62 51.26 50.11 47.94 49.34 49.24 48.43 51.10 39.68 34.42 33.32 33.81 40.34 34.37 32.91 34.00 37.11 35.14 33.15 33.84 31.52 34.72 43.13 45.93 47.31 33.67 36.04 44.57 45.28 44.45
50.80 50.42 50.22 50.33 50.47 50.98 54.10 59.12 62.28 57.55 50.67 52.17 54.22 54.14 51.24 51.07 50.81 48.02 49.17 47.60 49.45 43.95 36.05 34.60 37.26 34.60 39.22 38.30 39.83 37.72 35.54 34.22 33.09 32.55 31.46 29.91 46.97 46.24 37.11 42.64 46.72 45.94 45.31 44.81
50.19 50.10 49.92 50.13 50.43 50.48 51.32 54.97 61.22 60.94 54.19 52.87 56.91 56.95 57.85 55.62 54.32 51.49 51.00 47.45 47.54 47.34 42.63 38.19 38.23 34.42 36.05 34.03 32.22 41.75 34.12 38.86 36.60 37.66 37.53 45.20 47.60 46.05 47.71 47.09 46.02 45.60 45.40 46.14
49.78 49.85 49.92 50.02 50.29 50.54 52.18 54.97 57.90 54.96 40.94 50.09 51.23 51.34 56.29 58.13 57.28 58.73 49.37 52.02 51.28 49.48 52.22 46.79 36.96 33.87 40.91 33.51 35.20 37.87 40.89 44.03 38.47 38.21 41.56 43.97 45.60 47.49 47.96 48.18 46.11 46.51 46.92 45.45
49.08 49.18 49.31 49.43 49.86 50.35 51.07 52.64 57.32 54.13 43.27 33.69 44.34 54.55 53.03 56.96 57.17 56.87 56.11 53.95 54.20 52.97 51.40 39.31 35.51 33.69 41.52 37.14 38.83 37.87 40.79 41.71 38.66 37.89 42.19 43.97 45.37 47.00 47.20 47.33 47.66 46.13 46.29 45.19
48.90 48.98 49.13 49.25 49.72 50.06 51.29 53.31 55.86 56.26 49.24 37.50 39.92 47.28 52.62 54.56 55.44 54.23 54.60 53.20 51.51 49.42 40.58 35.32 36.05 42.09 39.45 42.08 39.82 37.20 41.89 39.76 37.07 36.05 43.04 43.13 43.98 47.35 48.23 45.53 44.87 44.55 43.55 42.18
48.41 48.88 49.20 49.53 49.53 49.51 50.11 44.53 50.46 52.53 52.61 40.04 34.06 45.49 46.49 50.89 52.78 52.27 51.82 52.26 51.41 49.93 45.71 38.23 43.03 45.92 38.89 33.69 35.66 42.04 45.08 45.78 46.58 43.18 46.77 46.47 47.43 47.15 46.66 44.55 44.22 43.89 42.60 42.39
47.94 48.25 48.53 49.02 48.91 50.07 45.77 42.53 47.52 50.46 52.08 34.96 35.69 39.17 42.71 46.26 47.93 49.34 49.19 51.05 49.13 47.88 44.09 38.59 38.56 38.64 41.53 33.33 34.68 42.26 44.89 46.07 46.33 47.29 46.52 42.37 44.48 43.67 45.25 44.54 43.42 43.31 42.57 41.60
47.83 48.08 48.14 48.54 48.16 47.60 43.98 46.82 48.12 49.19 43.08 37.67 34.60 33.87 36.59 44.35 42.51 40.78 45.57 42.65 41.47 39.84 39.48 37.68 36.40 40.08 36.58 33.83 40.99 43.78 45.26 45.77 45.65 45.16 45.94 44.88 44.26 43.61 42.67 42.95 42.40 40.85 39.35 37.99
47.11 47.22 47.09 46.84 44.58 40.52 42.74 47.29 47.69 47.13 41.74 33.69 32.06 32.61 32.97 43.65 40.60 38.76 37.60 39.07 32.97 39.82 34.78 37.79 38.70 37.98 34.72 39.30 41.66 43.16 44.28 43.48 42.66 43.61 42.74 41.94 40.43 40.41 40.93 40.79 40.36 39.01 37.60 35.36
46.64 47.47 42.75 35.14 40.58 46.50 46.60 43.08 36.58 35.13 34.24 33.69 32.24 38.71 36.58 42.54 37.50 35.32 35.69 35.32 32.79 32.06 36.68 41.58 36.83 36.05 42.41 43.75 44.47 44.56 42.85 41.99 41.79 39.23 37.35 38.08 38.45 39.01 39.32 39.31 40.11 38.81 35.51 35.45
46.09 42.03 37.32 44.05 45.39 44.70 39.79 33.87 32.61 33.15 32.06 33.86 36.27 37.78 38.06 42.36 35.03 33.51 35.32 32.61 33.69 31.16 35.22 36.45 35.01 33.74 38.88 43.24 43.13 42.87 41.96 41.75 41.31 41.11 40.43 40.28 39.92 38.91 38.27 37.79 38.32 36.10 35.18 34.77
44.56 45.16 46.13 44.57 41.30 37.68 33.69 32.06 34.57 32.79 32.41 37.55 35.74 37.17 38.32 37.48 42.09 36.40 34.60 32.47 33.51 27.31 37.30 32.25 29.47 36.10 40.64 41.01 40.54 40.74 41.30 40.79 40.44 40.60 39.26 39.24 39.33 39.71 37.70 37.37 37.34 34.90 35.02 31.61
46.07 41.11 36.59 36.41 35.32 29.66 28.46 27.33 31.40 32.46 36.18 35.03 35.44 34.23 37.10 37.48 36.88 33.69 32.17 30.18 28.48 35.07 31.31 29.26 33.76 39.35 40.69 40.32 39.75 39.51 40.19 38.08 36.72 38.21 38.39 38.96 38.65 38.29 34.00 33.84 34.33 33.74 32.22 32.54
38.34 32.97 28.68 30.73 28.50 30.12 32.38 33.37 32.58 33.51 34.42 35.69 36.91 35.32 36.14 35.31 31.99 32.05 27.57 32.66 34.05 28.02 26.26 28.92 36.81 37.44 38.37 38.81 38.95 38.18 37.33 33.49 33.89 35.72 36.68 35.46 34.71 34.16 33.06 32.64 31.48 30.47 30.23 31.39
34.06 32.98 27.46 29.80 34.76 36.22 33.56 36.05 35.83 35.97 36.89 37.58 35.94 35.71 34.90 33.42 30.13 31.63 31.22 27.06 24.74 27.55 28.71 35.64 37.39 38.41 38.44 37.61 38.30 37.26 34.85 32.17 33.04 35.61 34.66 34.06 33.64 32.88 32.10 33.19 31.98 31.90 30.98 30.19
34.18 31.55 29.90 33.94 33.19 31.88 32.24 32.42 33.69 37.96 37.28 36.79 36.30 31.63 27.46 26.61 28.99 26.73 25.17 25.10 24.15 30.86 36.98 37.08 37.53 37.01 36.93 35.90 34.83 35.89 36.20 35.28 35.37 35.68 35.86 35.35 34.21 32.94 33.12 33.16 32.41 31.85 31.58 30.91
29.65 30.79 36.17 35.44 33.86 32.42 33.69 33.66 35.03 39.79 34.15 30.58 31.90 25.11 25.07 31.59 26.66 25.06 29.56 27.75 32.19 35.60 35.99 36.64 37.11 35.91 36.17 35.61 35.55 33.86 34.44 35.48 35.74 35.98 35.92 35.70 35.48 33.83 32.38 31.31 32.15 31.43 31.56 30.96
MSLP
1021.28 1021.00 1020.49 1020.06 1019.47 1018.04 1017.73 1016.76 1015.85 1016.75 1016.61 1016.16 1016.06 1015.93 1016.16 1016.85 1016.48 1016.43 1016.35 1016.27 1016.31 1016.43 1016.50 1016.45 1016.41 1016.68 1017.19 1017.94 1018.00 1017.67 1018.25 1018.31 1017.45 1015.88 1014.61 1014.38 1014.71 1014.76 1015.07 1015.71 1016.03 1015.87 1014.70 1011.88
1021.38 1021.12 1020.68 1020.32 1019.96 1019.56 1018.66 1016.64 1016.35 1016.54 1016.55 1016.44 1016.49 1016.68 1016.91 1016.83 1016.61 1016.86 1016.66 1016.91 1017.24 1017.32 1017.23 1017.46 1017.41 1017.62 1018.23 1018.46 1018.53 1019.01 1019.36 1018.80 1017.99 1016.13 1015.16 1015.28 1015.27 1015.33 1015.28 1015.56 1015.77 1015.56 1014.94 1011.66
1021.54 1021.27 1020.89 1020.50 1020.10 1019.83 1019.23 1017.24 1017.03 1016.61 1016.29 1016.12 1016.22 1016.46 1016.72 1017.33 1017.72 1017.54 1017.44 1017.46 1017.63 1017.63 1017.72 1017.81 1018.09 1017.97 1018.19 1018.71 1019.06 1019.75 1020.25 1020.01 1019.65 1018.85 1017.72 1017.14 1016.47 1016.09 1015.68 1015.52 1015.21 1014.05 1013.66 1010.91
1021.73 1021.44 1021.09 1020.67 1020.15 1019.65 1019.36 1017.50 1017.59 1017.67 1017.32 1016.91 1016.69 1016.88 1017.00 1017.09 1017.41 1017.84 1017.88 1017.75 1017.97 1018.17 1018.57 1018.87 1018.50 1018.41 1018.48 1018.61 1019.14 1019.54 1020.17 1020.44 1020.33 1019.69 1018.96 1018.49 1017.79 1016.60 1015.52 1014.81 1014.25 1013.81 1011.77 1011.42
1021.80 1021.59 1021.32 1020.97 1020.34 1019.52 1018.75 1018.47 1017.94 1018.00 1017.97 1017.78 1017.38 1017.97 1017.30 1017.25 1017.57 1017.91 1017.79 1018.25 1018.20 1018.66 1018.85 1019.05 1019.08 1019.18 1019.36 1019.35 1019.22 1019.42 1020.10 1020.77 1021.20 1020.80 1020.09 1019.12 1017.75 1016.57 1015.01 1014.30 1013.67 1012.69 1011.67 1010.44
1021.87 1021.74 1021.61 1021.30 1020.78 1020.06 1018.63 1018.83 1018.75 1018.82 1019.16 1018.73 1018.44 1018.15 1017.74 1017.73 1018.14 1018.56 1018.54 1018.67 1018.78 1019.16 1019.50 1019.77 1019.95 1020.21 1020.13 1019.86 1019.77 1019.83 1020.51 1021.40 1022.22 1021.29 1020.65 1019.68 1018.13 1015.46 1014.30 1013.56 1012.97 1012.14 1011.32 1010.69
1021.82 1021.90 1021.85 1021.61 1021.30 1021.11 1020.06 1019.74 1019.30 1019.93 1019.99 1019.57 1018.90 1018.39 1018.27 1018.17 1018.31 1018.65 1018.72 1018.96 1019.30 1019.58 1019.74 1020.30 1020.53 1020.58 1020.09 1019.64 1019.20 1019.48 1020.11 1021.64 1022.42 1022.19 1021.51 1019.27 1015.85 1014.42 1013.85 1013.06 1012.50 1012.17 1011.80 1011.32
1021.72 1021.84 1021.84 1021.79 1021.60 1021.44 1020.71 1020.17 1019.83 1020.48 1020.66 1019.98 1019.35 1018.89 1018.64 1018.53 1018.65 1018.87 1018.96 1019.11 1019.68 1020.09 1020.48 1021.61 1022.24 1021.68 1021.45 1019.90 1018.74 1019.01 1019.56 1021.59 1022.68 1022.66 1020.81 1017.77 1016.49 1014.41 1013.69 1013.04 1012.44 1012.58 1012.63 1012.74
1021.54 1021.72 1021.81 1021.99 1021.96 1021.79 1021.24 1020.34 1020.34 1020.43 1020.94 1020.09 1019.43 1018.93 1018.71 1018.76 1019.02 1019.28 1019.26 1019.44 1019.93 1020.74 1021.58 1022.98 1023.44 1022.73 1021.79 1020.42 1019.67 1019.95 1021.02 1022.04 1022.70 1022.21 1020.56 1017.38 1015.20 1014.21 1013.59 1013.04 1012.73 1013.57 1013.87 1013.88
1021.24 1021.59 1021.77 1021.99 1022.19 1022.27 1021.86 1020.72 1020.51 1020.46 1020.92 1020.24 1019.69 1019.09 1018.90 1018.88 1019.03 1019.41 1019.77 1020.14 1020.96 1021.36 1022.64 1023.79 1024.08 1023.11 1021.88 1021.05 1020.65 1020.84 1021.65 1022.39 1022.42 1021.30 1019.80 1016.58 1014.72 1013.65 1013.46 1014.19 1014.84 1014.99 1014.52 1014.66
1020.66 1021.18 1021.60 1021.82 1022.19 1022.59 1022.44 1020.97 1020.60 1020.82 1020.82 1020.13 1019.65 1019.54 1019.14 1018.92 1019.15 1019.55 1019.96 1020.70 1020.92 1022.11 1023.18 1023.95 1023.89 1023.42 1022.31 1021.44 1020.85 1020.69 1021.12 1021.58 1021.26 1020.19 1018.71 1015.65 1013.80 1013.60 1014.87 1014.56 1014.09 1014.34 1014.06 1014.12
1020.20 1020.62 1021.09 1021.54 1021.88 1022.36 1022.76 1021.84 1021.00 1021.01 1021.44 1020.53 1020.21 1019.82 1019.33 1019.28 1019.12 1019.55 1019.88 1020.42 1020.53 1021.38 1022.37 1023.37 1023.81 1023.56 1022.75 1021.89 1020.84 1020.78 1020.39 1020.06 1019.32 1018.63 1016.65 1014.75 1014.16 1014.31 1013.91 1014.34 1014.25 1014.14 1013.97 1013.36
1019.73 1020.19 1020.57 1021.14 1021.57 1022.05 1022.40 1022.09 1021.70 1021.91 1022.13 1021.24 1020.85 1019.81 1019.20 1019.28 1019.33 1019.44 1020.03 1020.04 1020.34 1020.54 1020.78 1021.94 1022.83 1023.03 1022.60 1021.83 1020.71 1020.05 1019.62 1019.22 1018.53 1017.86 1016.09 1014.98 1014.51 1014.24 1014.22 1014.02 1014.05 1014.14 1013.57 1013.09
1019.34 1019.71 1020.19 1020.73 1021.14 1021.67 1022.12 1022.17 1021.55 1021.88 1022.37 1021.85 1020.54 1019.62 1019.26 1018.82 1018.91 1018.93 1019.36 1019.62 1019.90 1020.45 1021.07 1021.88 1022.20 1022.50 1022.02 1020.80 1019.92 1019.45 1019.24 1018.66 1017.80 1016.30 1015.28 1014.69 1014.12 1014.10 1013.79 1013.55 1013.38 1013.34 1013.33 1012.70
1018.79 1019.30 1019.70 1020.04 1020.77 1021.19 1021.69 1021.66 1021.34 1021.45 1021.99 1021.66 1021.26 1020.12 1018.97 1018.60 1018.55 1018.56 1018.83 1019.16 1019.55 1020.20 1020.90 1021.40 1021.26 1021.06 1021.17 1019.68 1018.98 1018.09 1018.00 1017.18 1016.80 1015.12 1014.64 1014.72 1013.24 1012.89 1012.88 1012.95 1013.33 1013.14 1012.82 1012.38
1018.45 1018.88 1019.16 1019.40 1020.14 1020.99 1021.58 1021.78 1021.09 1021.16 1021.21 1021.56 1021.45 1020.17 1019.23 1018.47 1018.03 1018.10 1018.25 1018.32 1018.86 1019.65 1019.92 1020.03 1019.93 1019.67 1020.16 1018.99 1016.58 1016.52 1016.01 1015.78 1015.17 1014.42 1013.84 1012.89 1012.46 1012.52 1012.90 1013.35 1013.01 1013.03 1013.01 1012.68
1018.12 1018.44 1018.75 1019.27 1019.84 1020.15 1020.80 1020.91 1020.81 1020.53 1021.12 1021.85 1021.96 1020.76 1020.01 1019.36 1018.85 1018.26 1018.36 1018.18 1018.41 1019.07 1019.28 1019.11 1019.59 1019.60 1019.27 1017.85 1016.07 1014.70 1015.38 1014.70 1013.99 1013.32 1012.82 1013.20 1012.89 1012.64 1012.87 1012.53 1012.88 1013.35 1013.66 1013.60
1017.89 1018.16 1018.45 1019.06 1019.81 1020.45 1020.68 1020.75 1020.39 1020.68 1021.11 1021.72 1021.98 1021.11 1020.67 1019.82 1019.52 1019.51 1019.44 1019.13 1019.18 1019.01 1018.77 1018.68 1018.83 1018.43 1017.80 1016.55 1014.81 1014.28 1013.56 1012.90 1012.49 1012.52 1012.87 1012.74 1012.57 1012.65 1012.87 1012.89 1013.47 1013.30 1013.51 1014.56
1018.18 1018.38 1018.67 1019.42 1020.19 1020.58 1020.77 1021.12 1020.88 1021.11 1021.41 1021.90 1022.10 1021.14 1020.25 1019.75 1019.93 1020.28 1020.25 1020.22 1020.10 1019.71 1018.88 1018.41 1018.51 1017.10 1015.71 1014.45 1013.77 1013.16 1012.66 1012.54 1012.69 1012.92 1013.15 1013.18 1013.15 1013.20 1013.13 1013.18 1013.14 1013.58 1014.28 1015.08
1018.68 1018.57 1019.07 1020.20 1020.59 1020.96 1020.79 1021.25 1021.43 1021.58 1022.03 1022.01 1021.70 1020.87 1019.93 1019.30 1020.25 1020.77 1021.24 1020.80 1020.62 1019.82 1018.17 1017.43 1016.42 1014.81 1014.18 1013.64 1013.01 1012.55 1012.87 1013.05 1013.19 1013.19 1013.37 1013.39 1013.72 1013.77 1013.58 1013.65 1013.66 1014.11 1014.88 1015.17
1018.80 1019.10 1019.87 1020.40 1020.76 1020.74 1020.99 1021.53 1021.88 1022.03 1022.05 1021.62 1020.82 1020.38 1019.71 1019.56 1020.28 1020.84 1021.11 1020.76 1020.40 1019.35 1017.20 1016.30 1014.87 1013.59 1013.11 1012.48 1012.53 1012.95 1013.26 1013.38 1013.55 1013.61 1013.87 1014.06 1014.12 1014.13 1014.04 1014.01 1014.26 1014.70 1015.26 1015.47
1019.09 1018.98 1019.81 1020.61 1020.59 1020.87 1021.37 1021.16 1021.27 1021.28 1020.69 1020.48 1020.20 1020.14 1020.13 1020.43 1020.36 1020.59 1020.96 1020.78 1020.23 1018.54 1017.33 1016.54 1014.34 1013.14 1012.46 1012.74 1013.04 1013.25 1013.41 1013.68 1013.89 1014.13 1014.36 1014.35 1014.21 1014.27 1014.46 1014.54 1014.51 1014.83 1015.26 1015.60
1019.18 1019.75 1020.52 1020.56 1020.97 1020.91 1020.76 1020.39 1020.32 1020.13 1020.04 1020.37 1020.40 1020.62 1020.75 1021.10 1021.38 1021.15 1021.09 1020.27 1019.29 1018.60 1017.11 1015.22 1013.71 1013.09 1012.86 1012.89 1013.17 1013.53 1014.07 1014.74 1014.83 1014.87 1014.94 1014.74 1014.47 1014.45 1014.80 1014.96 1015.12 1015.24 1015.32 1015.48
1019.88 1020.56 1020.81 1020.55 1020.29 1020.27 1019.82 1019.85 1020.26 1020.67 1020.62 1020.51 1020.46 1020.81 1020.99 1021.50 1021.66 1021.26 1020.67 1019.24 1018.66 1017.43 1015.92 1014.31 1013.57 1013.60 1013.67 1014.07 1014.41 1014.61 1014.74 1015.37 1015.53 1015.34 1015.02 1014.77 1014.60 1014.49 1014.61 1014.86 1015.08 1015.16 1015.26 1015.36
1020.55 1020.88 1020.47 1020.09 1019.66 1020.20 1020.92 1020.77 1020.68 1020.90 1020.83 1020.89 1020.93 1020.91 1021.03 1021.19 1021.36 1020.98 1020.00 1018.91 1017.36 1015.89 1014.55 1014.19 1014.10 1014.35 1014.37 1014.56 1014.70 1014.71 1014.91 1015.20 1015.23 1014.93 1014.84 1014.69 1014.56 1014.62 1014.43 1014.49 1014.68 1015.06 1015.19 1015.25
1020.88 1021.01 1020.57 1020.29 1020.31 1020.63 1020.92 1021.24 1021.10 1020.94 1020.90 1021.28 1021.25 1021.10 1021.05 1020.73 1020.41 1019.70 1018.39 1017.19 1015.34 1014.38 1014.42 1014.60 1014.51 1014.51 1014.57 1014.77 1014.77 1014.69 1014.72 1014.78 1014.68 1014.46 1014.29 1014.15 1014.09 1014.20 1014.12 1014.10 1014.43 1014.72 1014.88 1014.97
1020.92 1020.67 1020.55 1020.35 1020.52 1020.57 1020.88 1021.34 1021.26 1020.77 1021.31 1021.16 1021.08 1020.92 1020.12 1019.17 1018.55 1017.56 1016.44 1015.50 1015.08 1014.89 1014.86 1014.81 1014.80 1014.80 1014.62 1014.61 1014.45 1014.40 1014.40 1014.23 1014.04 1013.85 1013.71 1013.70 1013.78 1013.86 1013.86 1013.75 1013.92 1014.19 1014.32 1014.53
Wind_Speed
9 10 12 14 17 25 1 3 1 3 2 2 3 2 3 4 4 1 4 4 6 6 5 5 5 5 6 7 9 8 7 4 6 19 17 3 5 8 8 3 8 9 13 13
7 10 12 12 13 14 6 3 3 2 2 2 2 5 4 5 1 4 3 3 4 3 4 3 4 5 4 7 6 7 10 3 6 8 5 3 12 19 18 17 2 8 8 11
7 8 11 13 14 11 4 2 3 3 3 3 6 5 4 4 3 3 2 2 2 2 4 2 5 7 4 1 6 8 1 6 6 8 15 18 19 22 24 20 12 17 15 28
6 8 9 12 14 14 4 3 3 4 2 2 4 3 1 4 3 1 2 1 2 4 4 6 4 5 9 9 4 2 3 6 12 17 19 20 23 25 25 23 21 20 24 23
6 7 9 12 14 20 3 5 3 1 3 3 1 2 1 2 5 3 3 3 4 4 5 3 11 13 11 8 11 5 3 4 3 7 19 20 20 23 25 26 22 22 21 21
5 7 9 11 14 10 3 1 2 3 1 2 1 2 2 1 4 4 3 7 9 6 8 9 11 12 14 16 17 15 14 3 2 8 9 11 11 15 17 14 17 17 16 21
3 3 5 10 12 10 5 4 3 5 1 2 4 3 4 4 4 5 6 6 7 6 7 10 10 11 16 18 19 15 9 4 3 3 3 7 8 21 24 20 16 17 19 21
4 4 5 7 9 10 4 2 1 3 1 5 7 6 7 8 6 6 8 9 6 7 5 4 7 4 4 8 12 8 7 5 2 4 9 18 16 18 13 19 13 16 10 19
6 6 5 6 7 8 3 1 2 2 5 5 10 10 10 5 6 8 10 4 3 2 2 3 2 3 4 3 8 9 9 9 1 3 14 16 2 18 19 12 15 12 13 17
8 7 6 5 6 6 4 3 2 3 1 4 6 6 6 7 5 5 3 1 0 4 3 2 4 5 8 5 3 4 3 3 6 11 11 11 14 15 12 7 5 17 14 16
11 9 8 7 5 5 3 4 3 3 2 7 8 9 11 8 4 3 1 3 2 2 3 3 4 4 4 5 8 7 8 6 5 5 6 12 4 11 5 14 17 19 15 13
11 11 11 10 9 6 3 4 1 3 3 5 5 9 11 11 14 8 3 5 4 5 3 4 3 3 2 2 9 14 6 8 8 11 8 21 24 25 16 25 20 19 20 19
11 11 12 13 12 11 10 3 1 3 2 4 6 11 12 11 11 8 8 3 6 7 6 3 4 5 4 5 5 6 6 13 13 17 17 24 24 25 22 20 18 18 19 15
12 12 12 12 13 14 11 3 3 2 1 3 5 8 12 8 10 12 12 13 12 9 5 3 4 4 6 6 10 10 6 9 12 21 23 22 20 19 22 22 19 13 15 14
12 13 13 13 14 15 8 5 4 4 4 3 3 4 9 11 11 13 14 12 12 7 3 4 5 4 3 7 8 8 6 15 10 18 21 19 25 22 25 16 11 15 13 13
12 14 14 14 14 13 2 3 5 6 3 2 3 3 4 11 13 12 15 12 11 10 5 4 4 4 5 5 13 9 13 13 15 18 25 26 23 19 17 15 14 12 14 13
12 12 13 13 15 8 4 4 1 1 5 3 3 4 3 6 8 7 9 11 8 5 4 5 3 4 5 3 12 21 18 19 23 24 17 14 14 12 12 8 13 15 13 14
10 11 10 9 14 9 2 2 5 2 4 3 3 4 3 3 2 2 4 2 3 2 2 2 2 2 3 7 16 19 20 19 18 13 12 11 11 13 13 13 13 13 12 12
16 18 15 5 3 1 2 5 5 2 3 4 2 3 3 3 2 1 3 2 1 3 3 4 3 5 9 10 15 16 17 15 11 10 10 11 12 13 14 15 16 13 10 8
8 1 3 3 1 6 6 3 4 4 3 2 3 2 3 4 1 1 1 1 2 3 5 4 5 10 19 19 18 13 8 7 7 5 7 10 11 13 16 16 13 8 5 5
0 2 2 2 4 2 2 2 1 2 3 4 2 5 1 0 2 2 2 1 2 4 4 4 4 4 10 9 3 5 5 6 6 8 9 12 13 14 14 12 7 2 3 5
3 6 5 2 1 2 2 4 3 3 3 4 3 2 1 2 2 2 3 3 3 7 3 2 5 3 2 2 1 2 5 9 11 10 13 15 15 14 9 10 4 2 3 4
3 3 2 2 2 4 5 6 4 4 2 1 1 2 2 2 3 1 2 5 6 3 4 4 4 3 6 1 4 8 10 7 7 14 16 17 16 13 5 8 5 7 5 4
2 2 4 4 4 4 2 2 3 2 2 3 3 2 1 2 1 2 4 4 3 4 6 6 1 5 4 5 5 7 10 5 7 12 14 13 11 11 5 7 5 4 4 3
2 1 3 5 1 5 3 2 3 3 1 1 2 2 2 1 2 3 4 4 7 6 4 3 6 4 5 6 7 9 2 5 7 12 11 10 9 8 8 5 4 3 3 3
1 2 2 2 1 2 2 1 1 2 3 1 1 1 2 5 4 7 9 6 8 4 3 6 7 7 5 6 9 6 6 6 9 12 11 10 9 8 7 3 4 5 5 5
2 3 1 1 2 2 2 3 4 3 3 2 2 4 8 4 7 8 6 7 7 6 6 7 9 11 10 10 9 6 8 10 12 12 10 10 8 3 6 8 5 6 5 4
Wind_Direction
342 341 349 348 347 336 198 293 109 11 262 216 320 68 40 299 82 92 58 27 32 7 0 340 1 351 41 1 336 336 64 287 289 288 276 335 279 278 290 258 284 291 297 279
340 339 345 346 347 9 317 318 73 166 250 105 99 136 90 27 142 35 42 78 25 12 5 348 26 1 93 346 336 28 359 314 308 336 125 174 325 315 307 301 253 246 258 269
334 337 341 341 339 343 300 300 28 18 347 293 142 146 152 112 25 65 44 63 273 340 339 84 316 317 80 211 274 131 67 268 280 280 293 304 310 313 309 302 290 292 268 290
324 334 340 338 334 336 300 8 48 5 105 52 64 35 333 144 154 70 310 151 346 6 36 342 301 322 332 321 135 185 225 259 273 284 295 309 303 290 285 282 287 287 296 291
319 336 341 338 338 334 263 343 344 106 29 341 197 69 26 287 114 325 105 317 348 319 298 283 317 335 331 309 296 257 177 246 281 274 290 293 305 302 287 288 288 281 287 289
316 342 348 345 346 337 333 84 150 352 345 44 29 217 280 332 39 99 339 344 332 347 334 340 336 311 292 281 282 277 274 201 167 279 300 331 288 257 267 271 298 289 301 310
281 330 335 345 349 1 319 34 322 81 238 238 234 246 271 260 239 283 337 327 308 315 321 313 322 306 287 283 277 271 259 128 139 286 332 236 251 317 309 298 303 303 306 298
235 255 298 327 339 353 311 21 278 116 201 246 279 266 287 289 262 261 268 278 56 3 326 20 341 299 348 281 238 245 248 137 187 257 257 283 287 274 327 313 299 300 338 349
217 224 250 287 312 343 301 312 339 110 123 244 251 274 270 247 256 284 279 277 14 329 83 97 217 277 294 297 332 65 50 68 295 280 286 294 326 313 295 306 278 19 348 312
210 220 217 234 287 318 308 349 269 278 146 269 258 247 261 262 271 287 323 209 306 284 91 147 234 239 256 262 205 280 50 321 247 258 267 270 280 290 4 289 334 305 329 332
199 205 208 197 231 289 294 306 265 279 222 275 265 256 263 270 252 253 234 358 225 66 165 194 228 229 246 271 271 281 298 296 254 237 244 279 266 338 334 307 311 333 326 309
200 197 197 196 192 198 234 279 314 302 240 295 350 300 286 282 279 302 277 219 268 173 180 201 230 251 217 264 273 264 255 216 263 258 271 289 304 302 324 318 324 323 304 315
205 204 199 196 185 183 194 260 329 47 33 279 265 247 261 261 272 276 265 261 231 236 227 276 199 230 211 228 237 242 253 259 261 290 275 285 302 301 301 299 316 312 309 345
203 205 203 200 190 185 183 204 218 123 109 188 256 268 254 255 260 240 238 257 269 263 273 229 194 186 194 215 248 256 244 298 271 273 274 290 283 290 302 297 307 331 323 301
206 206 204 199 196 186 192 229 230 214 191 230 245 276 249 239 242 240 243 234 236 241 219 220 235 207 200 238 261 237 226 254 254 271 290 284 284 293 290 327 328 329 313 330
212 213 207 199 193 174 146 271 202 206 181 264 312 309 253 253 245 239 246 233 234 231 222 210 235 191 165 243 267 266 266 271 269 287 291 284 286 328 345 347 324 326 336 345
211 208 202 200 184 168 189 185 33 146 142 107 288 268 344 303 280 263 261 249 237 223 225 211 180 212 192 227 266 281 283 274 277 272 292 341 315 321 309 308 352 338 357 16
182 186 178 170 133 116 69 21 39 25 103 95 211 264 322 233 213 250 338 335 7 295 237 31 183 295 176 246 255 274 280 278 286 348 328 315 354 344 344 350 338 338 6 1
101 103 106 89 54 96 110 115 74 29 108 169 189 208 189 201 126 100 357 36 329 302 246 203 160 208 226 246 269 272 292 311 345 326 347 354 353 337 339 335 335 341 360 351
143 145 66 66 51 122 130 36 31 16 6 70 218 249 211 214 130 82 319 52 243 248 241 227 212 250 263 272 273 285 18 13 4 15 359 358 339 333 333 329 331 352 3 326
301 81 77 101 143 191 66 123 233 151 235 191 227 217 188 149 132 175 215 253 225 255 251 233 240 239 242 263 328 37 35 21 6 10 351 330 332 324 324 323 324 24 315 301
47 97 105 101 126 69 219 186 176 223 248 164 173 188 201 54 303 180 175 248 219 252 352 275 251 257 226 45 304 332 4 351 347 350 329 320 312 314 317 313 285 236 265 281
79 60 109 178 122 190 221 189 197 192 80 73 27 67 56 79 39 239 257 241 238 340 235 243 246 222 225 7 15 5 353 42 2 329 311 304 301 305 303 295 287 283 250 231
56 148 174 216 168 247 203 280 68 77 101 92 114 104 93 129 210 226 256 245 263 254 238 240 279 45 54 11 8 319 323 9 307 297 295 289 278 273 271 259 250 237 243 222
125 189 224 209 237 68 50 14 113 113 141 109 119 96 351 135 277 235 276 250 239 227 244 322 23 43 25 0 329 319 276 268 301 309 301 293 283 267 269 228 198 221 237 242
122 229 246 95 44 121 94 37 44 209 95 77 357 130 217 223 226 210 217 240 237 269 11 352 340 331 337 341 316 277 286 285 295 303 295 292 291 263 265 221 198 210 223 231
193 212 327 359 63 37 101 152 215 119 142 199 184 226 226 232 223 221 224 251 285 323 340 327 317 313 308 316 306 297 301 296 299 293 296 299 298 282 256 239 201 217 206 208